Skip Page Navigation
NASA JPL Caltech
NASA Logo - Jet Propulsion Laboratory + View the NASA Portal
+ Center for Near-Earth Object Studies
JPL Home Earth Solar System Stars & Galaxies Technology
JPL Solar System Dynamics
BODIES ORBITS EPHEMERIDES TOOLS PHYSICAL DATA DISCOVERY FAQ SITE MAP
IMPORTANT: The SSD Announcement email list is now available. Major changes are coming in the near future, including possible hostname and/or URL changes. To be notified of such changes, subscribe to this email list.

Please visit this page for more details.


JPL Small-Body Database Browser
Search: [ help ]  
351310 (2004 TV332)
Classification: Main-belt Asteroid          SPK-ID: 2351310
Ephemeris | Orbit Diagram | Orbital Elements | Mission Design | Physical Parameters | Discovery Circumstances | Close-Approach Data ]

[ show orbit diagram ]
Orbital Elements at Epoch 2458600.5 (2019-Apr-27.0) TDB
Reference: JPL 12 (heliocentric ecliptic J2000)
 Element Value Uncertainty (1-sigma)   Units 
e .1185368232472162 3.952e-08  
a 2.405954954938588 1.8221e-08 au
q 2.120760697704269 9.3175e-08 au
i 3.043376210959265 8.2902e-06 deg
node 29.29190243226343 0.00010174 deg
peri 67.24560862472875 0.00011083 deg
M 274.6294372361323 4.368e-05 deg
tp 2458923.747599588481
(2020-Mar-15.24759959)
0.00016698 TDB
period 1363.106111572984
3.73
1.5485e-05
4.24e-08
d
yr
n .2641026967332503 3.0002e-09 deg/d
Q 2.691149212172907 2.0381e-08 au
  Orbit Determination Parameters
   # obs. used (total)      157  
   data-arc span      6490 days (17.77 yr)  
   first obs. used      2000-10-02  
   last obs. used      2018-07-10  
   planetary ephem.      DE431  
   SB-pert. ephem.      SB431-N16  
   condition code      0  
   norm. resid. RMS      .5885  
   source      ORB  
   producer      Otto Matic  
   solution date      2019-Jul-14 06:12:10  

Additional Information
 Earth MOID = 1.13985 au 
 Jupiter MOID = 2.4512 au 
 T_jup = 3.511 
[ show covariance matrix ]

Ephemeris | Orbit Diagram | Orbital Elements | Mission Design | Physical Parameters | Discovery Circumstances | Close-Approach Data ]

Physical Parameter Table
Parameter Symbol Value Units Sigma Reference Notes
absolute magnitude H 17.5   n/a MPO455542  

351310 (2004 TV332)          Discovered 2004-Oct-09 by Spacewatch at Kitt Peak
Reference: 20130127/Numbers.arcLast Updated: 2013-01-31

[ show close-approach data ]
Ephemeris | Orbit Diagram | Orbital Elements | Mission Design | Physical Parameters | Discovery Circumstances | Close-Approach Data ]
ABOUT SSD CREDITS/AWARDS PRIVACY/COPYRIGHT GLOSSARY LINKS
FirstGov
(server date/time)  
NASA Home Page
Site Manager:   Ryan S. Park
Webmaster  Alan B. Chamberlin